Location: M?digepalle
(16.1753°N, 80.3496°E)
Time: 08:26:59
(UTC+00:00)

CZ-4 R/B - Pass Details

Date: 29 October 2020
Orbit: 532 x 598 km, 97.7° (Epoch: 28 November)

Event Time Altitude Azimuth Distance (km) Brightness Sun altitude
Rises 14:02:38 0° 189° (S) 2,737 5.1 -27.5°
Reaches altitude 10° 14:05:01 10° 201° (SSW) 1,831 4.3 -28.1°
Maximum altitude 14:08:25 28° 260° (W) 1,051 3.3 -28.9°
Drops below altitude 10° 14:11:47 10° 320° (NW) 1,803 4.3 -29.7°
Sets 14:14:06 0° 332° (NNW) 2,687 5.1 -30.2°
